This is the latest recevied weather packets stored in our database for station/object KC2TER. If no packets are shown the sender has not sent any weather packets the latest 10 day(s).
| Time | Temp. | Humidity | Pressure | Rain* | Wind** | Luminosity | Snow |
|---|---|---|---|---|---|---|---|
| 1778271534 | 17.78° C | 41% | 1011.1 hPa | 0 mm | - | 62 W/m² | - |
| 1778271231 | 18.33° C | 39% | 1011 hPa | 0 mm | - | 70 W/m² | - |
| 1778270927 | 18.33° C | 39% | 1011 hPa | 0 mm | - | 109 W/m² | - |
| 1778270624 | 18.33° C | 38% | 1011 hPa | 0 mm | - | 242 W/m² | - |
| 1778270320 | 17.78° C | 40% | 1011.1 hPa | 0 mm | - | 170 W/m² | - |
| 1778270017 | 17.78° C | 40% | 1011.1 hPa | 0 mm | - | 52 W/m² | - |
| 1778269713 | 17.78° C | 39% | 1011.1 hPa | 0 mm | - | 58 W/m² | - |
| 1778269411 | 17.78° C | 40% | 1011.2 hPa | 0 mm | - | 73 W/m² | - |
| 1778269107 | 17.78° C | 38% | 1011.1 hPa | 0 mm | - | 131 W/m² | - |
| 1778268804 | 18.33° C | 38% | 1011.3 hPa | 0 mm | - | 148 W/m² | - |
| 1778268500 | 18.89° C | 39% | 1011.2 hPa | 0 mm | - | 109 W/m² | - |
| 1778268198 | 18.89° C | 39% | 1011 hPa | 0 mm | - | 194 W/m² | - |
| 1778267895 | 18.89° C | 38% | 1011.1 hPa | 0 mm | - | 214 W/m² | - |
| 1778267592 | 19.44° C | 37% | 1011.2 hPa | 0 mm | - | 562 W/m² | - |
| 1778267289 | 18.33° C | 39% | 1011.2 hPa | 0 mm | - | 257 W/m² | - |
| 1778266985 | 19.44° C | 38% | 1011.5 hPa | 0 mm | - | 173 W/m² | - |
| 1778266681 | 18.33° C | 38% | 1011.6 hPa | 0 mm | - | 844 W/m² | - |
| 1778266379 | 18.33° C | 38% | 1011.3 hPa | 0 mm | - | 276 W/m² | - |
| 1778266076 | 19.44° C | 37% | 1011.5 hPa | 0 mm | - | 206 W/m² | - |
| 1778265773 | 19.44° C | 38% | 1011.6 hPa | 0 mm | - | 881 W/m² | - |
| 1778265470 | 18.89° C | 37% | 1011.8 hPa | 0 mm | - | 872 W/m² | - |
| 1778265166 | 18.89° C | 39% | 1011.8 hPa | 0 mm | - | 232 W/m² | - |
| 1778264863 | 18.89° C | 38% | 1011.8 hPa | 0 mm | - | 502 W/m² | - |
| 1778264559 | 17.78° C | 39% | 1012.2 hPa | 0 mm | - | 317 W/m² | - |
| 1778264255 | 18.33° C | 39% | 1011.9 hPa | 0 mm | - | 315 W/m² | - |
* Rain latest hour (hover to see other rain measurements)
** Current wind speed in m/s (hover to see current wind gust speed)